Location: Terra Rouge Observatory
(46.0000°N, 62.7500°W)
Time: 01:04:06
(UTC-03:00)

Daily predictions for brighter satellites

Satellite Brightness Start Highest point End
(mag) Time Altitude Azimuth Time Altitude Azimuth Time Altitude Azimuth
ISS -1.4 00:00:27 10° WNW 00:03:24 30° N 00:05:39 15° NE
Cosmos 1302 Rocket 4.3 00:06:46 37° SW 00:08:48 66° WNW 00:14:06 10° NNE
Meteor 2-14 Rocket 4.4 00:09:21 48° S 00:11:13 90° E 00:17:25 10° N
Meteor 2-15 4.4 00:05:19 10° N 00:11:27 81° W 00:13:09 50° S
Cosmos 1943 Rocket 3.1 00:18:11 33° E 00:18:11 33° E 00:22:53 10° NE
Meteor 1-5 Rocket 4.0 00:18:47 60° SE 00:19:25 66° E 00:24:42 10° NNE
H-2A R/B 3.5 00:17:11 10° NNE 00:21:01 39° E 00:21:01 39° E
GP-B 4.4 00:20:43 10° NNE 00:24:24 29° ENE 00:24:24 29° ENE
Lacrosse 5 1.9 00:25:04 40° WSW 00:26:55 79° NW 00:32:03 10° NE
CZ-4C R/B 3.7 00:30:16 59° N 00:30:16 59° N 00:33:21 10° N
Cosmos 44 Rocket 4.2 00:26:19 10° NNW 00:31:18 46° NE 00:32:43 37° E
Cosmos 2100 Rocket 4.4 00:34:12 42° ESE 00:35:28 48° E 00:41:32 10° NNE
Cosmos 1892 Rocket 4.4 00:37:30 10° NNW 00:41:37 41° W 00:41:37 41° W
Cosmos 2084 Rocket 4.4 00:40:51 10° NW 00:43:25 35° WNW 00:43:25 35° WNW
Meteor 2-4 Rocket 4.5 00:42:03 10° NNW 00:47:04 39° W 00:48:06 36° WSW
Cosmos 1459 Rocket 4.1 00:48:02 49° SE 00:49:04 55° E 00:55:00 10° NNE
NOSS 3-1 (A) 4.5 00:43:31 10° NW 00:50:42 46° WSW 00:52:37 40° SSW
Cosmos 2061 Rocket 4.2 00:52:40 50° SE 00:53:58 60° E 01:00:17 10° NNE
Cosmos 2263 4.2 00:53:34 58° SW 00:54:42 79° WNW 01:00:24 10° NNE
Cosmos 1605 Rocket 4.4 00:53:28 41° SW 00:55:31 58° WNW 01:01:52 10° N
CZ-4B R/B 3.2 00:57:11 29° NNW 00:57:11 29° NNW 00:58:54 10° NNW
Cosmos 1315 Rocket 4.2 00:59:11 29° WNW 00:59:13 29° WNW 01:02:42 10° N
Cosmos 1602 Rocket 3.7 00:57:05 10° NNW 01:01:14 68° WNW 01:01:14 68° WNW
Cosmos 968 Rocket 3.4 00:57:04 10° NNW 01:02:20 75° ENE 01:02:51 68° ESE
Cosmos 44 4.4 00:57:51 10° NNW 01:02:51 42° NE 01:04:44 30° E
Cosmos 1802 Rocket 4.1 01:01:57 52° SE 01:03:06 61° E 01:09:19 10° NNE
Lacrosse 5 rocket 2.8 01:03:13 23° WNW 01:04:39 31° NNW 01:07:59 10° NE
Cosmos 1626 Rocket 3.8 01:01:25 10° NNW 01:05:34 62° WNW 01:05:34 62° WNW
Meteor 1-12 Rocket 4.1 01:05:06 67° SSW 01:05:54 87° W 01:11:36 10° N
Cosmos 1455 Rocket 4.0 01:10:46 37° W 01:10:54 37° WNW 01:14:58 10° N
Cosmos 2173 Rocket 4.0 01:09:49 59° SSE 01:11:06 79° E 01:17:29 10° N
ATLAS 2AS CENTAUR R/B 2.9 01:04:05 10° NW 01:12:14 77° SW 01:14:44 48° SSE
ALOS 2 3.6 01:14:48 36° W 01:14:48 36° W 01:18:27 10° NNW
Cosmos 1833 4.2 01:09:14 10° NNW 01:14:47 62° WSW 01:15:08 61° SW
CZ-2C R/B 3.2 01:14:57 54° ESE 01:15:31 58° ENE 01:20:17 10° N
Cosmos 1346 Rocket 4.1 01:14:09 10° NNW 01:16:52 32° WNW 01:16:52 32° WNW
USA 234 3.8 01:14:37 10° NE 01:21:00 56° NNW 01:27:19 10° WSW
Cosmos 2369 Rocket 3.5 01:26:50 22° W 01:29:41 34° NW 01:34:47 10° NNE
Cosmos 1725 Rocket 4.3 01:28:25 47° SE 01:29:42 55° E 01:35:42 10° NNE
Meteor 1-21 4.4 01:24:11 10° N 01:29:46 63° ENE 01:30:52 52° SE
Helios 1A Rocket 3.2 01:27:53 10° N 01:31:37 65° NNW 01:31:37 65° NNW
CZ-2C R/B 2.4 01:27:19 10° NNE 01:32:36 89° ESE 01:33:08 73° S
Cosmos 1818 4.0 01:35:17 42° WSW 01:36:49 58° NW 01:42:16 10° NNE
Cosmos 1340 3.8 01:35:54 10° N 01:39:06 39° NE 01:39:06 39° NE
Cosmos 1743 3.4 01:40:58 54° NNE 01:40:58 54° NNE 01:44:04 10° NNE
ISS -0.7 01:37:18 10° NW 01:38:13 16° NW 01:38:13 16° NW
Cosmos 2219 3.0 01:35:11 10° NNW 01:40:50 74° WSW 01:41:21 68° SSW
Cosmos 2227 Rocket 3.4 01:36:50 10° NNW 01:42:07 37° NE 01:45:43 18° ESE
Tsikada Rocket 4.0 01:35:47 10° N 01:42:07 76° E 01:43:47 51° SSE
Cosmos 1066 Rocket 4.2 01:37:56 10° NNW 01:43:12 59° W 01:43:35 57° WSW
Cosmos 1606 Rocket 3.6 01:47:02 70° NE 01:47:02 70° NE 01:51:02 10° NNE
Cosmos 2098 Rocket 4.3 01:46:10 49° SSE 01:48:17 76° E 01:55:56 10° NNE
Cosmos 1777 Rocket 3.8 01:43:18 10° NNW 01:48:32 74° WSW 01:48:46 73° SW
Cosmos 1656 Rocket 3.5 01:49:33 67° SSW 01:50:21 86° ESE 01:56:01 10° NNE
Cosmos 1975 4.4 01:51:44 27° WNW 01:51:44 27° WNW 01:55:04 10° NNW
UNK 3.8 01:39:41 10° WSW 01:52:15 85° NNW 01:55:47 10° ENE
H-2A R/B 4.3 01:53:09 10° N 01:56:49 24° WNW 01:57:39 23° W
Cosmos 2208 Rocket 4.1 01:56:57 56° SE 01:57:21 58° ESE 02:02:32 10° NNE
Cosmos 1842 3.6 01:56:22 10° N 01:59:53 64° NNE 01:59:53 64° NNE
Cosmos 1943 Rocket 3.0 01:59:42 32° W 02:01:33 42° NW 02:06:53 10° NNE
GP-B 4.4 01:58:02 10° NNW 02:01:52 29° WNW 02:01:52 29° WNW
Cosmos 2297 Rocket 3.4 01:57:59 10° NNW 02:03:17 39° NE 02:07:39 14° ESE
Cosmos 1666 3.2 02:05:43 55° NE 02:05:43 55° NE 02:08:51 10° NNE
Cosmos 2058 Rocket 3.0 02:09:45 85° E 02:09:45 85° E 02:14:12 10° N
Lacrosse 5 3.7 02:06:06 10° WNW 02:10:32 29° NNW 02:15:00 10° NE
Cosmos 1953 Rocket 4.1 02:08:53 10° NNW 02:12:38 47° WNW 02:12:38 47° WNW
PSLV R/B 4.0 02:11:45 10° NNE 02:16:09 53° E 02:16:28 52° ESE
ATLAS CENTAUR R/B 3.3 02:16:51 23° ESE 02:17:05 24° ESE 02:21:02 10° ENE
SeaSat 1 2.4 02:18:12 57° SE 02:19:15 86° ENE 02:24:13 10° NNW
Cosmos 1726 Rocket 3.9 02:22:31 53° WNW 02:22:31 53° WNW 02:26:42 10° N
Cosmos 405 Rocket 4.1 02:22:55 10° N 02:26:41 35° ENE 02:27:40 30° ESE
Landsat 4 4.4 02:30:10 46° E 02:30:36 49° ENE 02:34:20 10° N
Cosmos 2233 Rocket 3.9 02:31:54 49° SSW 02:33:39 80° W 02:39:49 10° N
NOSS 3-4 (A) 4.1 02:28:27 10° NW 02:35:20 66° NE 02:42:37 10° SE
NOSS 3-4 (C) 4.1 02:28:33 10° NW 02:35:28 66° NE 02:42:47 10° SE
Meteor 2-17 Rocket 4.4 02:34:29 49° SSW 02:36:16 81° W 02:42:26 10° N
ERS-2 4.2 02:38:04 10° NE 02:40:49 19° E 02:41:32 18° ESE
Cosmos 2150 Rocket 4.1 02:37:44 10° NNW 02:43:00 74° ENE 02:45:09 36° SE
Cosmos 44 4.3 02:39:24 10° NW 02:43:07 31° W 02:43:07 31° W
NOSS 3-3 (A) 4.4 02:41:21 33° WSW 02:44:15 62° NW 02:51:04 10° NE
NOSS 3-3 (C) 4.4 02:41:27 33° WSW 02:44:20 62° NW 02:51:09 10° NE
Lacrosse 5 rocket 4.0 02:42:33 10° NW 02:44:49 15° N 02:47:03 10° NNE
JB-3 4.2 02:40:45 10° NNE 02:44:51 88° WNW 02:45:06 79° SSW
Cosmos 1898 Rocket 3.5 02:42:52 10° NNW 02:48:15 83° ENE 02:50:29 37° SSE
CZ-2D R/B 4.3 02:48:31 10° NE 02:52:17 19° E 02:55:58 10° SE
BREEZE-M DEB (TANK) 3.1 02:48:40 10° WNW 02:54:02 42° W 02:54:02 42° W
Cosmos 220 Rocket 3.8 02:52:11 10° NNW 02:56:32 79° WSW 02:57:04 66° S
Cosmos 1937 Rocket 3.6 02:52:54 10° NNW 02:58:06 73° ENE 03:01:03 26° SSE
SL-08 R/B 3.2 03:00:16 46° SSE 03:01:41 90° SW 03:06:22 10° NNW
ATLAS 2AS CENTAUR R/B 4.4 02:56:59 10° WNW 03:01:58 18° WSW 03:02:08 18° WSW
Cosmos 2228 3.8 03:05:18 34° W 03:05:43 35° WNW 03:09:41 10° N
Cosmos 1707 2.7 03:04:11 10° N 03:08:09 81° E 03:08:55 56° SSE
IRS-P3 4.1 03:03:30 10° NNE 03:08:53 84° WNW 03:10:49 41° SSW
Cosmos 1697 Rocket 3.4 03:11:19 27° SSE 03:13:55 45° ESE 03:19:17 10° NE
ARIANE 5 R/B 3.7 03:11:22 10° NNE 03:16:06 36° E 03:19:22 18° SSE
Cosmos 2082 3.9 03:11:22 10° NW 03:16:47 48° WSW 03:18:19 38° SSW
Cosmos 1891 Rocket 4.4 03:16:38 32° S 03:19:40 85° E 03:25:50 10° N
BREEZE-M DEB (TANK) 1.6 03:20:32 84° ESE 03:20:32 84° ESE 03:23:35 10° E
Cosmos 1980 Rocket 3.5 03:19:36 18° SSE 03:22:56 33° ESE 03:27:56 10° NE
ADEOS 3.7 03:20:24 10° NNE 03:25:37 68° ESE 03:28:17 29° S
Cosmos 2227 Rocket 2.7 03:20:57 10° NW 03:26:11 39° WSW 03:27:28 34° SW
USA 161 2.1 03:27:15 46° ESE 03:27:41 52° ENE 03:30:25 10° N
Resurs 1-4 Rocket 3.3 03:23:51 10° NNE 03:28:42 36° E 03:32:41 14° SSE
Okean O Rocket 4.3 03:28:21 10° ENE 03:30:17 13° E 03:32:13 10° ESE
Cosmos 2034 Rocket 3.9 03:31:59 29° SSW 03:35:20 77° W 03:41:34 10° N
Cosmos 2322 Rocket 4.5 03:32:21 10° SE 03:35:45 17° E 03:39:10 10° ENE
Spot 4 Rocket 4.1 03:31:21 10° NNE 03:36:33 75° ESE 03:39:26 27° S
Cosmos 1408 Rocket 3.8 03:33:38 10° N 03:38:01 67° E 03:41:14 18° SSE
Nadezhda 4 Rocket 3.9 03:33:09 10° N 03:39:22 88° W 03:44:23 17° S
Cosmos 1814 Rocket 4.1 03:39:44 32° SW 03:42:14 69° WNW 03:47:37 10° NNE
CBERS-1 4.2 03:37:23 10° N 03:42:27 59° WNW 03:44:51 30° SW
Cosmos 1766 Rocket 3.8 03:38:05 10° N 03:42:30 69° E 03:45:58 16° SSE
NPP 4.0 03:38:25 10° N 03:43:39 51° WNW 03:46:15 28° SW
Meteor 2-5 Rocket 4.3 03:38:49 10° NNW 03:44:20 43° W 03:46:59 27° SW
Milstar 3 Cent rocket 4.1 03:44:44 13° SSE 03:44:44 13° SSE 03:47:13 10° SE
Abrixas 2.6 03:45:00 56° S 03:45:00 56° S 03:47:43 10° ESE
IRS-1D 3.8 03:41:20 10° NNE 03:46:15 60° ESE 03:49:41 20° S
NOSS 7 (E) 4.4 03:45:45 45° SSW 03:46:40 73° SE 03:50:10 10° NE
Cosmos 2297 Rocket 2.8 03:42:09 10° NW 03:47:17 37° WSW 03:49:22 27° SSW
Cosmos 2278 4.5 03:45:40 23° WSW 03:48:41 41° NW 03:54:04 10° NNE
RESURS DK-1 4.0 03:45:10 10° NNW 03:49:01 35° NE 03:52:49 10° ESE
SL-16 R/B 2.5 03:43:16 10° SSE 03:49:26 87° ENE 03:55:39 10° NNW
BREEZE-M DEB (TANK) 2.8 03:46:37 24° WSW 03:49:41 81° SSE 03:52:19 10° ENE
Cosmos 2369 4.3 03:47:40 24° WSW 03:50:42 45° WNW 03:56:09 10° NNE
Lacrosse 5 4.1 03:50:41 10° NW 03:54:50 24° N 03:58:59 10° ENE
ATLAS CENTAUR R/B 2.1 03:53:11 26° WSW 03:55:53 59° NW 04:00:49 10° NNE
SeaSat 1 4.3 03:57:59 14° W 03:57:59 14° W 03:59:58 10° WNW
NOSS 2-1 (D) 4.2 03:55:28 25° WSW 03:57:31 46° NW 04:02:06 10° NNE
NOSS 2-1 (C) 4.2 03:56:51 25° WSW 03:58:56 46° NW 04:03:31 10° NNE
Cosmos 990 Rocket 4.3 03:55:22 10° NNW 04:00:23 46° WSW 04:03:43 20° SSW
Cosmos 1378 3.2 03:57:29 10° NNW 04:01:14 58° W 04:03:04 27° SSW
Cosmos 405 Rocket 4.3 03:59:33 10° NW 04:02:31 20° W 04:02:52 19° W
SL-16 R/B 3.8 04:04:43 10° SSE 04:09:32 29° ESE 04:14:21 10° NE
Cosmos 2026 Rocket 4.3 04:03:50 10° N 04:10:11 69° E 04:16:25 10° SSE
Cosmos 1461 3.0 04:06:02 10° NNW 04:10:13 73° NE 04:14:14 10° SE
ERS-2 3.1 04:11:18 10° N 04:14:41 33° WNW 04:16:22 22° WSW
GPS 2-04 Rocket1 4.3 04:16:04 18° S 04:16:04 18° S 04:18:40 10° SE
EP 1 4.1 04:15:16 38° SW 04:16:04 83° NW 04:18:49 10° NE
Cosmos 1766 3.7 04:14:25 24° SW 04:16:22 44° WNW 04:20:11 10° N
Cosmos 2263 Rocket 3.9 04:13:40 10° NNW 04:18:48 35° NE 04:23:51 10° ESE
Cosmos 372 Rocket 4.2 04:14:42 10° NNW 04:19:49 70° ENE 04:24:53 10° SSE
Cosmos 1634 Rocket 4.0 04:14:51 12° S 04:20:42 88° W 04:27:04 10° N
Cosmos 2195 Rocket 4.4 04:15:18 10° N 04:21:28 88° W 04:27:34 10° S
BREEZE-M DEB (TANK) 4.3 04:07:57 10° W 04:21:38 67° N 04:25:12 10° E
Meteor 1-24 Rocket 4.5 04:17:19 10° NNW 04:22:28 36° W 04:26:30 16° SSW
Lacrosse 5 rocket 3.8 04:22:26 10° NNW 04:25:11 20° NNE 04:27:57 10° ENE
NOSS 3-4 (A) 4.5 04:19:54 10° NW 04:25:56 32° WSW 04:32:15 10° S
NOSS 3-4 (C) 4.5 04:19:59 10° NW 04:26:05 32° WSW 04:32:27 10° S
Cosmos 332 Rocket 4.4 04:21:48 11° S 04:26:20 55° ESE 04:31:05 10° NNE
Cosmos 1656 4.4 04:23:43 17° WSW 04:27:45 41° NW 04:33:05 10° NNE
CZ-4B R/B 4.3 04:23:37 10° NNE 04:28:52 42° E 04:33:59 10° SSE
UNKNOWN OBJECT B 2.7 04:25:13 10° NNE 04:29:09 89° WNW 04:32:28 14° SSW
Cosmos 1092 Rocket 4.3 04:24:14 10° NNW 04:30:17 50° W 04:36:20 10° SSW
CZ-2D R/B 2.2 04:27:25 10° N 04:32:52 67° WNW 04:37:44 13° SSW
Cosmos 2151 4.3 04:30:18 10° N 04:34:26 43° ENE 04:38:32 10° SSE
Cosmos 1441 Rocket 4.4 04:32:45 10° NW 04:36:08 27° W 04:38:28 16° SW
Cosmos 1125 Rocket 3.6 04:31:20 10° NNW 04:36:24 52° WSW 04:41:25 10° S
Cosmos 1437 3.0 04:33:39 10° NNW 04:36:55 51° W 04:40:09 10° S
Cosmos 841 Rocket 4.0 04:33:02 16° SW 04:37:00 46° WNW 04:42:06 10° NNE
Cosmos 2227 4.4 04:33:03 10° NW 04:38:39 54° WSW 04:44:13 10° S
MTI 4.0 04:36:48 10° S 04:40:00 51° W 04:43:14 10° NNW
Cosmos 1763 Rocket 4.3 04:38:11 15° WSW 04:42:09 38° WNW 04:46:58 10° N
EO 1 Del DPAF 4.0 04:39:31 12° SSW 04:42:41 34° W 04:46:15 10° NNW
Cosmos 1733 4.0 04:41:51 10° S 04:45:31 51° E 04:49:15 10° NNE
Cosmos 371 Rocket 3.9 04:40:53 10° S 04:45:35 57° ESE 04:50:19 10° NNE
Cosmos 1805 3.6 04:42:23 14° SSW 04:45:35 47° WNW 04:49:24 10° N
Cosmos 1758 3.8 04:44:00 14° SW 04:47:14 42° WNW 04:51:05 10° N
Cosmos 1500 Rocket 3.6 04:45:12 10° NNW 04:49:34 64° W 04:53:52 10° S
Cosmos 1953 3.0 04:47:48 13° SW 04:51:06 38° WNW 04:54:56 10° N
Cosmos 1544 3.1 04:47:29 10° SSW 04:51:07 66° W 04:54:46 10° N
GEOS 3 Rocket 4.1 04:49:18 10° S 04:54:08 38° WSW 04:58:57 10° NW
Cosmos 1428 Rocket 4.5 04:48:23 10° N 04:54:34 86° W 05:00:40 10° S
Cosmos 1743 Rocket 4.1 04:50:57 10° NNW 04:54:59 38° W 04:59:01 10° SSW
ARIANE 5 R/B 3.5 04:50:38 10° N 04:55:10 33° WNW 04:59:43 10° SW
Cosmos 1697 Rocket 3.7 04:53:04 11° WSW 04:58:02 33° NW 05:03:09 10° NNE
CZ-2C R/B 3.8 04:57:07 10° S 05:01:44 60° WSW 05:06:18 10° NNW
Cosmos 540 Rocket 3.6 05:01:18 10° SSW 05:06:25 63° WNW 05:11:35 10° NNE
Cosmos 1980 Rocket 2.8 05:01:27 10° SW 05:06:48 43° NW 05:12:12 10° NNE
Okean O Rocket 1.6 05:02:45 10° N 05:07:09 71° WNW 05:11:33 10° SSW
Cosmos 2360 Rocket 3.8 05:02:25 10° SSE 05:07:24 34° ESE 05:12:26 10° NE
Resurs 1-4 Rocket 3.0 05:03:49 10° N 05:08:29 33° WNW 05:13:09 10° SW
Cosmos-2242 4.2 05:06:40 10° SW 05:10:17 26° WNW 05:13:54 10° NNW
Cosmos 2221 3.2 05:07:02 10° S 05:11:14 58° E 05:15:28 10° NNE
CZ-4B DEB 4.3 05:06:02 10° NNE 05:11:38 85° ESE 05:17:09 10° SSW
Cosmos 1674 3.1 05:09:51 10° NNW 05:13:25 40° W 05:16:56 10° SSW
Cosmos 2279 Rocket 4.1 05:07:34 10° SSW 05:13:45 61° WNW 05:19:58 10° N
BREEZE-M DEB (TANK) 2.9 05:14:21 10° WSW 05:18:41 86° NNW 05:23:40 10° ENE
Cosmos 2322 Rocket 2.2 05:13:28 10° SSW 05:19:06 78° WNW 05:24:45 10° NNE
Cosmos 1346 3.8 05:16:11 10° N 05:19:11 58° ENE 05:22:11 10° SSE
Cosmos 2058 3.1 05:16:04 10° N 05:20:20 85° E 05:24:33 10° S
